Cartersville, GA

8:43 PM EST on January 19, 2018 (GMT -0500)
Cartersville

Weather History for KVPC - May, 2013

Change the Weather History Date:

Thursday, May 2, 2013

  Actual Average Record
Temperature  
Mean Temperature 64 °F 64 °F  
Max Temperature 69 °F 76 °F 89 °F (2012)
Min Temperature 59 °F 51 °F 37 °F (2005)
Degree Days  
Heating Degree Days 1 3  
Month to date heating degree days 1 6  
Since 1 July heating degree days 219 3230  
Cooling Degree Days 0 2  
Month to date cooling degree days 1 4  
Year to date cooling degree days 27 29  
Growing Degree Days 14 (Base 50)    
Moisture  
Dew Point 57 °F    
Average Humidity 79    
Maximum Humidity 90    
Minimum Humidity 68    
Precipitation  
Precipitation T in 0.11 in 0.88 in (1961)
Month to date precipitation T 0.23  
Year to date precipitation 5.55 18.36  
Snow  
Snow 0.00 in - - ()
Month to date snowfall 0.0  
Since 1 July snowfall 0.0  
Snow Depth 0.00 in    
Sea Level Pressure  
Sea Level Pressure 30.13 in    
Wind  
Wind Speed 8 mph (East)    
Max Wind Speed 15 mph    
Max Gust Speed 23 mph    
Visibility 10 miles    
Events      
T = Trace of Precipitation, MM = Missing Value Source: NWS Daily Summary

Daily Weather History Graph

Daily Weather History Graph

Search for Another Location

Airport or City:

Trip Planner

Search our weather history database for the weather conditions in past years. The results will help you decide how hot, cold, wet, or windy it might be!

Date:

Astronomy

May. 02, 2013 Rise Set
Actual Time 6:48 AM EDT 8:24 PM EDT
Civil Twilight 6:22 AM EDT 8:51 PM EDT
Nautical Twilight 5:49 AM EDT 9:23 PM EDT
Astronomical Twilight 5:16 AM EDT 9:57 PM EDT
Moon 2:15 AM EDT (5/2) 1:31 PM EDT (5/2)
Length of Visible Light 14h 29m
Length of Day
13h 35m
Waning Gibbous, 48% of the Moon is Illuminated
May 2
Waning Gibbous
May 9
New
May 18
First Quarter
May 25
Full
May 31
Last Quarter

Hourly Weather History & Observations

Time (EDT) Temp. Dew Point Humidity Pressure Visibility Wind Dir Wind Speed Gust Speed Precip Events Conditions
12:53 AM 62.1 °F 54.0 °F 75% 30.15 in 10.0 mi East 8.1 mph 16.1 mph N/A   Clear
1:53 AM 61.0 °F 54.0 °F 78% 30.15 in 10.0 mi East 8.1 mph 16.1 mph N/A   Clear
2:53 AM 60.1 °F 54.0 °F 80% 30.13 in 10.0 mi East 6.9 mph - N/A   Clear
3:53 AM 60.1 °F 54.0 °F 80% 30.12 in 10.0 mi East 8.1 mph - N/A   Clear
4:53 AM 60.1 °F 54.0 °F 80% 30.12 in 10.0 mi East 8.1 mph - N/A   Clear
5:53 AM 60.1 °F 54.0 °F 80% 30.12 in 10.0 mi East 6.9 mph - N/A   Clear
6:16 AM 60.8 °F 55.4 °F 82% 30.14 in 10.0 mi ESE 8.1 mph - N/A   Mostly Cloudy
6:53 AM 61.0 °F 55.9 °F 83% 30.12 in 10.0 mi East 6.9 mph - N/A   Overcast
7:53 AM 61.0 °F 55.9 °F 83% 30.12 in 10.0 mi East 9.2 mph - N/A   Overcast
8:53 AM 61.0 °F 57.9 °F 90% 30.14 in 10.0 mi Variable 4.6 mph - 0.00 in   Overcast
9:53 AM 62.1 °F 57.9 °F 86% 30.15 in 10.0 mi East 8.1 mph - N/A   Overcast
10:53 AM 63.0 °F 57.9 °F 84% 30.17 in 10.0 mi ESE 5.8 mph - N/A   Overcast
11:53 AM 64.9 °F 57.9 °F 78% 30.17 in 10.0 mi East 9.2 mph - N/A   Overcast
12:53 PM 66.9 °F 57.9 °F 73% 30.16 in 10.0 mi Variable 5.8 mph 17.3 mph N/A   Overcast
1:53 PM 66.9 °F 57.9 °F 73% 30.15 in 10.0 mi East 9.2 mph 19.6 mph N/A   Overcast
2:53 PM 66.0 °F 57.9 °F 75% 30.15 in 10.0 mi ENE 9.2 mph - N/A   Overcast
3:53 PM 66.9 °F 59.0 °F 76% 30.13 in 10.0 mi ENE 9.2 mph - N/A   Overcast
4:38 PM 66.2 °F 59.0 °F 78% 30.14 in 10.0 mi ENE 11.5 mph 16.1 mph N/A   Overcast
4:53 PM 68.0 °F 59.0 °F 73% 30.11 in 10.0 mi East 13.8 mph 19.6 mph N/A   Mostly Cloudy
5:29 PM 66.2 °F 57.2 °F 73% 30.13 in 10.0 mi ENE 10.4 mph 16.1 mph N/A   Mostly Cloudy
5:40 PM 68.0 °F 57.2 °F 68% 30.13 in 10.0 mi ENE 13.8 mph 20.7 mph N/A   Scattered Clouds
5:53 PM 68.0 °F 57.9 °F 70% 30.10 in 10.0 mi ENE 8.1 mph 18.4 mph N/A   Mostly Cloudy
6:22 PM 64.4 °F 57.2 °F 77% 30.13 in 10.0 mi East 9.2 mph 18.4 mph N/A   Overcast
6:53 PM 64.9 °F 57.9 °F 78% 30.10 in 10.0 mi East 10.4 mph - N/A   Mostly Cloudy
7:02 PM 64.4 °F 57.2 °F 77% 30.13 in 10.0 mi East 9.2 mph 16.1 mph N/A   Mostly Cloudy
7:37 PM 64.4 °F 57.2 °F 77% 30.13 in 10.0 mi East 6.9 mph - N/A   Overcast
7:53 PM 64.0 °F 57.0 °F 78% 30.11 in 10.0 mi ENE 6.9 mph - N/A   Overcast
8:53 PM 63.0 °F 57.0 °F 81% 30.11 in 10.0 mi ENE 5.8 mph - N/A   Overcast
9:53 PM 62.1 °F 57.0 °F 84% 30.13 in 10.0 mi ENE 9.2 mph 16.1 mph N/A   Overcast
10:37 PM 60.8 °F 57.2 °F 88% 30.15 in 10.0 mi East 6.9 mph - N/A   Mostly Cloudy
10:48 PM 60.8 °F 57.2 °F 88% 30.15 in 10.0 mi Variable 6.9 mph - N/A   Mostly Cloudy
10:53 PM 61.0 °F 57.0 °F 87% 30.13 in 10.0 mi East 9.2 mph - N/A   Mostly Cloudy
11:35 PM 60.8 °F 55.4 °F 82% 30.14 in 10.0 mi East 6.9 mph 16.1 mph N/A   Mostly Cloudy
11:53 PM 61.0 °F 55.9 °F 83% 30.12 in 10.0 mi East 9.2 mph - N/A   Mostly Cloudy